Location: Diebersbach
(48.5163°N, 8.0558°E)
Time: 04:27:34
(UTC+00:00)

USA 229 - Pass Details

Date: 31 October 2021
Orbit: 946 x 1266 km, 63.4° (Epoch: 25 November)

Event Time Altitude Azimuth Distance (km) Brightness Sun altitude
Rises 21:29:23 0° 306° (NW) 3,832 7.2 -49.9°
Reaches altitude 10° 21:32:27 10° 319° (NW) 2,930 6.5 -50.3°
Enters shadow 21:33:55 15° 328° (NNW) 2,566 6.1 -50.4°
